Weather History for KCOU - January, 2013

Change the Weather History Date:

Monday, January 7, 2013

  Actual Average Record
Temperature  
Mean Temperature 35 °F 29 °F  
Max Temperature 50 °F 38 °F 75 °F (1965)
Min Temperature 20 °F 21 °F -20 °F (1920)
Degree Days  
Heating Degree Days 30 36  
Month to date heating degree days 264 248  
Since 1 July heating degree days 2029 2243  
Cooling Degree Days 0 0  
Month to date cooling degree days 0 0  
Year to date cooling degree days 0 0  
Moisture  
Dew Point 21 °F    
Average Humidity 62    
Maximum Humidity 84    
Minimum Humidity 39    
Precipitation  
Precipitation 0.00 in 0.07 in 1.26 in (1937)
Month to date precipitation 0.02 0.46  
Year to date precipitation 0.02 0.46  
Snow  
Snow 0.00 in 0.30 in 3.00 in (1973)
Month to date snowfall T 1.4  
Since 1 July snowfall 3.7 6.7  
Snow Depth 0.00 in    
Sea Level Pressure  
Sea Level Pressure 30.24 in    
Wind  
Wind Speed 10 mph (South)    
Max Wind Speed 17 mph    
Max Gust Speed 20 mph    
Visibility 10 miles    
Events      
T = Trace of Precipitation, MM = Missing Value Source: NWS Daily Summary

Daily Weather History Graph

Daily Weather History Graph

Search for Another Location

Airport or City:

Trip Planner

Search our weather history database for the weather conditions in past years. The results will help you decide how hot, cold, wet, or windy it might be!

Date:

Astronomy

Jan. 07, 2013 Rise Set
Actual Time 7:27 AM CST 5:03 PM CST
Civil Twilight 6:57 AM CST 5:33 PM CST
Nautical Twilight 6:24 AM CST 6:06 PM CST
Astronomical Twilight 5:52 AM CST 6:38 PM CST
Moon 2:52 AM CST (1/7) 1:14 PM CST (1/7)
Length of Visible Light 10h 35m
Length of Day
9h 36m
Waning Crescent, 22% of the Moon is Illuminated
Jan 7
Waning Crescent
Jan 11
New
Jan 18
First Quarter
Jan 26
Full
Feb 3
Last Quarter

Hourly Weather History & Observations

Time (CST) Temp. Windchill Dew Point Humidity Pressure Visibility Wind Dir Wind Speed Gust Speed Precip Events Conditions
12:54 AM 23.0 °F 15.8 °F 18.0 °F 81% 30.37 in 10.0 mi South 5.8 mph - N/A   Clear
1:54 AM 21.9 °F 12.5 °F 18.0 °F 85% 30.37 in 10.0 mi South 8.1 mph - N/A   Clear
2:54 AM 21.9 °F 12.5 °F 18.0 °F 85% 30.37 in 10.0 mi South 8.1 mph - N/A   Clear
3:54 AM 21.9 °F 13.4 °F 17.1 °F 82% 30.35 in 10.0 mi SSE 6.9 mph - N/A   Clear
4:54 AM 21.9 °F 13.4 °F 17.1 °F 82% 30.34 in 10.0 mi SSE 6.9 mph - N/A   Clear
5:54 AM 21.0 °F 11.4 °F 17.1 °F 85% 30.32 in 10.0 mi SE 8.1 mph - N/A   Clear
6:54 AM 21.9 °F 13.4 °F 17.1 °F 82% 30.33 in 10.0 mi SE 6.9 mph - N/A   Clear
7:54 AM 23.0 °F 13.1 °F 18.0 °F 81% 30.34 in 10.0 mi South 9.2 mph - N/A   Clear
8:54 AM 27.0 °F 17.3 °F 19.9 °F 75% 30.34 in 10.0 mi South 10.4 mph - N/A   Clear
9:54 AM 32.0 °F 22.1 °F 21.0 °F 64% 30.34 in 10.0 mi South 13.8 mph - N/A   Clear
10:54 AM 37.9 °F 30.9 °F 21.9 °F 53% 30.31 in 10.0 mi South 10.4 mph - N/A   Clear
11:54 AM 44.1 °F 38.6 °F 23.0 °F 43% 30.26 in 10.0 mi South 10.4 mph - N/A   Clear
12:54 PM 46.4 °F 40.1 °F 24.8 °F 43% 30.21 in 10.0 mi SSW 15.0 mph - N/A   Clear
1:54 PM 48.0 °F - 24.1 °F 39% 30.20 in 10.0 mi South 13.8 mph - N/A   Clear
2:54 PM 46.9 °F - 24.1 °F 41% 30.18 in 10.0 mi South 13.8 mph - N/A   Clear
3:54 PM 46.0 °F 41.9 °F 24.1 °F 42% 30.18 in 10.0 mi South 8.1 mph - N/A   Clear
4:54 PM 42.8 °F 38.6 °F 24.8 °F 49% 30.14 in 10.0 mi South 6.9 mph - N/A   Clear
5:54 PM 37.9 °F 31.5 °F 24.1 °F 57% 30.16 in 10.0 mi South 9.2 mph - N/A   Clear
6:54 PM 39.9 °F 32.9 °F 24.1 °F 53% 30.15 in 10.0 mi South 11.5 mph - N/A   Clear
7:54 PM 39.0 °F 32.8 °F 23.0 °F 53% 30.14 in 10.0 mi South 9.2 mph - N/A   Clear
8:54 PM 37.9 °F 30.5 °F 23.0 °F 55% 30.14 in 10.0 mi South 11.5 mph - N/A   Clear
9:54 PM 36.0 °F 28.5 °F 21.9 °F 57% 30.14 in 10.0 mi South 10.4 mph - N/A   Clear
10:54 PM 36.0 °F 28.5 °F 21.9 °F 57% 30.13 in 10.0 mi South 10.4 mph - N/A   Clear
11:54 PM 35.1 °F 27.9 °F 23.0 °F 61% 30.12 in 10.0 mi South 9.2 mph - N/A   Clear